EW3145 Weather Reports


Display with metric or nautical units.
time (UTC)temp
F
wind
direction
speed
MPH
gust
MPH
rain 1hr
in
rain 24hr
in
rain mn
in
humidity
%
barometer
mb
20200407233216 56 254 0.0 0.0 0.00 0.00 0.00 32 1004.2
20200407231646 57 269 0.0 0.0 0.00 0.00 0.00 31 1004.2
20200407230244 57 277 0.0 0.0 0.00 0.00 0.00 30 1004.4
20200407224625 58 263 0.0 0.0 0.00 0.00 0.00 28 1004.3
20200407223121 59 262 0.0 5.0 0.00 0.00 0.00 27 1004.2
20200407220106 61 281 0.0 0.0 0.00 0.00 0.00 25 1004.3
20200407214632 61 238 0.0 0.0 0.00 0.00 0.00 25 1004.5
20200407213239 61 276 0.0 1.0 0.00 0.00 0.00 24 1004.6
20200407211624 61 195 0.0 12.0 0.00 0.00 0.00 24 1004.9
20200407210156 61 254 0.0 4.0 0.00 0.00 0.00 24 1004.8
20200407204615 61 238 0.0 0.0 0.00 0.00 0.00 24 1005.0
20200407203209 61 225 3.0 10.0 0.00 0.00 0.00 23 1005.0
20200407201635 61 212 0.0 1.0 0.00 0.00 0.00 23 1005.2
20200407200255 61 308 0.0 8.0 0.00 0.00 0.00 23 1005.1
20200407194832 62 248 6.0 16.0 0.00 0.00 0.00 23 1005.3
20200407193113 63 269 3.0 10.0 0.00 0.00 0.00 22 1005.6
20200407191901 63 277 8.0 13.0 0.00 0.00 0.00 23 1005.7
20200407190102 63 288 0.0 0.0 0.00 0.00 0.00 23 1006.2
20200407184632 62 309 0.0 15.0 0.00 0.00 0.00 24 1006.3
20200407183107 61 312 4.0 13.0 0.00 0.00 0.00 24 1006.6
20200407181653 61 329 0.0 0.0 0.00 0.00 0.00 25 1006.8
20200407180043 61 291 1.0 12.0 0.00 0.00 0.00 26 1007.3
20200407174606 61 275 5.0 15.0 0.00 0.00 0.00 27 1007.6
20200407173111 60 209 0.0 13.0 0.00 0.00 0.00 26 1007.8
20200407171612 61 275 3.0 7.0 0.00 0.00 0.00 27 1008.0
20200407170032 60 196 0.0 8.0 0.00 0.00 0.00 28 1008.4
20200407164603 60 312 0.0 11.0 0.00 0.00 0.00 27 1008.6
20200407163213 59 331 2.0 8.0 0.00 0.00 0.00 26 1008.7
20200407161533 61 335 1.0 10.0 0.00 0.00 0.00 26 1008.9
20200407160053 62 325 3.0 11.0 0.00 0.00 0.00 26 1009.0
20200407154549 61 295 0.0 12.0 0.00 0.00 0.00 26 1009.3
20200407153027 61 336 0.0 1.0 0.00 0.00 0.00 27 1009.7
20200407151614 60 311 0.0 2.0 0.00 0.00 0.00 30 1009.8
20200407150051 59 211 0.0 10.0 0.00 0.00 0.00 30 1010.0
20200407144538 59 292 0.0 1.0 0.00 0.00 0.00 30 1010.3
20200407143027 58 318 0.0 6.0 0.00 0.00 0.00 30 1010.4
20200407141545 56 274 6.0 10.0 0.00 0.00 0.00 34 1010.5
20200407140017 55 288 0.0 0.0 0.00 0.00 0.00 33 1010.7
20200407134527 56 332 0.0 0.0 0.00 0.00 0.00 33 1010.5
20200407133029 57 309 0.0 0.0 0.00 0.00 0.00 34 1010.5
20200407131526 56 336 0.0 6.0 0.00 0.00 0.00 33 1010.6
20200407130015 61 312 0.0 0.0 0.00 0.00 0.00 32 1010.7
20200407124511 53 36 0.0 0.0 0.00 0.00 0.00 39 1010.9
20200407123015 53 61 0.0 0.0 0.00 0.00 0.00 40 1011.0
20200407121516 50 121 0.0 0.0 0.00 0.00 0.00 44 1011.0
20200407120009 49 121 0.0 0.0 0.00 0.00 0.00 44 1011.2
20200407113111 43 289 0.0 0.0 0.00 0.00 0.00 58 1011.2
20200407111711 41 289 0.0 0.0 0.00 0.00 0.00 60 1011.0
20200407110152 37 289 0.0 0.0 0.00 0.00 0.00 69 1011.1
20200407104622 36 289 0.0 0.0 0.00 0.00 0.00 66 1011.0
20200407103107 37 289 0.0 0.0 0.00 0.00 0.00 63 1010.9
20200407101644 38 289 0.0 0.0 0.00 0.00 0.00 59 1010.7
20200407100125 40 289 0.0 0.0 0.00 0.00 0.00 53 1010.6
20200407094626 41 289 0.0 0.0 0.00 0.00 0.00 47 1010.4
20200407093145 41 261 0.0 0.0 0.00 0.00 0.00 44 1010.2
20200407090104 42 261 0.0 1.0 0.00 0.00 0.00 43 1010.2
20200407084657 42 262 0.0 9.0 0.00 0.00 0.00 44 1010.1
20200407083145 41 248 0.0 7.0 0.00 0.00 0.00 47 1010.2
20200407081629 39 252 0.0 0.0 0.00 0.00 0.00 55 1010.2
20200407080044 37 273 0.0 0.0 0.00 0.00 0.00 66 1010.2
20200407074607 38 311 0.0 0.0 0.00 0.00 0.00 73 1010.2
20200407073304 38 315 0.0 0.0 0.00 0.00 0.00 72 1010.1
20200407071848 38 315 0.0 0.0 0.00 0.00 0.00 73 1010.3
20200407070521 38 315 0.0 0.0 0.00 0.00 0.00 75 1010.3
20200407064703 38 315 0.0 0.0 0.00 0.00 0.00 74 1010.4
20200407063216 38 315 0.0 0.0 0.00 0.00 0.00 73 1010.6
20200407061603 39 315 0.0 0.0 0.00 0.00 0.00 72 1010.6
20200407060030 38 315 0.0 0.0 0.00 0.00 0.00 71 1010.7
20200407054609 38 315 0.0 0.0 0.00 0.00 0.00 71 1010.8
20200407053042 38 315 0.0 0.0 0.00 0.00 0.00 71 1010.7
20200407051558 38 315 0.0 0.0 0.00 0.00 0.00 72 1010.8
20200407050053 38 315 0.0 0.0 0.00 0.00 0.00 72 1011.0
20200407044535 38 315 0.0 0.0 0.00 0.00 0.00 69 1011.0
20200407043121 38 315 0.0 0.0 0.00 0.00 0.00 68 1011.0
20200407041526 38 315 0.0 0.0 0.00 0.00 0.00 67 1011.1
20200407040046 38 327 0.0 0.0 0.00 0.00 0.00 67 1011.0
20200407034600 38 307 0.0 0.0 0.00 0.00 0.00 67 1010.9
20200407033043 39 307 0.0 0.0 0.00 0.00 0.00 66 1010.9
20200407031550 39 302 0.0 0.0 0.00 0.00 0.00 66 1010.8
20200407030039 40 284 0.0 0.0 0.00 0.00 0.00 63 1010.7
20200407024521 40 284 0.0 0.0 0.00 0.00 0.00 62 1010.7
20200407023129 41 284 0.0 0.0 0.00 0.00 0.00 60 1010.6
20200407021551 42 284 0.0 0.0 0.00 0.00 0.00 58 1010.5
20200407020135 43 284 0.0 0.0 0.00 0.00 0.00 54 1010.5
20200407014540 44 284 0.0 0.0 0.00 0.00 0.00 54 1010.7
20200407013023 45 284 0.0 0.0 0.00 0.00 0.00 51 1010.5
20200407011535 46 284 0.0 0.0 0.00 0.00 0.00 49 1010.5
20200407010059 47 284 0.0 0.0 0.00 0.00 0.00 46 1010.3
20200407004528 48 284 0.0 0.0 0.00 0.00 0.00 44 1010.3
20200407003049 49 284 0.0 0.0 0.00 0.00 0.00 41 1010.3
20200407001528 50 284 0.0 0.0 0.00 0.00 0.00 39 1010.2
20200407000043 52 284 0.0 0.0 0.00 0.00 0.00 35 1010.1
20200406234631 53 269 0.0 0.0 0.00 0.00 0.00 31 1010.2